Healy, AK

2:27 AM AKST on February 22, 2017 (GMT -0900)
McKinley National Park

Weather History for PAIN - September, 2013

Change the Weather History Date:

Friday, September 20, 2013

  Actual Average Record
Temperature  
Mean Temperature 25 °F -  
Max Temperature 33 °F 47 °F 62 °F (2010)
Min Temperature 17 °F 29 °F 8 °F (2003)
Degree Days  
Heating Degree Days 40    
Moisture  
Dew Point 21 °F    
Average Humidity 78    
Maximum Humidity 100    
Minimum Humidity 52    
Precipitation  
Precipitation 0.00 in - - ()
Sea Level Pressure  
Sea Level Pressure 29.35 in    
Wind  
Wind Speed 4 mph (North)    
Max Wind Speed 8 mph    
Max Gust Speed -    
Visibility 10 miles    
Events      
Averages and records for this station are not official NWS values.
T = Trace of Precipitation, MM = Missing Value Source: NWS Daily Summary

Daily Weather History Graph

Daily Weather History Graph

Search for Another Location

Airport or City:

Trip Planner

Search our weather history database for the weather conditions in past years. The results will help you decide how hot, cold, wet, or windy it might be!

Date:

Astronomy

Sep. 20, 2013 Rise Set
Actual Time 7:34 AM AKDT 8:01 PM AKDT
Civil Twilight 6:47 AM AKDT 8:48 PM AKDT
Nautical Twilight 5:48 AM AKDT 9:46 PM AKDT
Astronomical Twilight 4:41 AM AKDT 10:52 PM AKDT
Moon 7:49 PM AKDT (9/20) 9:44 AM AKDT (9/20)
Length of Visible Light 14h 01m
Length of Day
12h 27m
Full, 98% of the Moon is Illuminated
Sep 20
Full
Sep 26
Last Quarter
Oct 4
New
Oct 11
First Quarter
Oct 18
Full

Hourly Weather History & Observations

Time (AKDT) Temp. Windchill Dew Point Humidity Pressure Visibility Wind Dir Wind Speed Gust Speed Precip Events Conditions
12:16 AM 28.4 °F 23.3 °F 26.6 °F 93% 29.54 in 10.0 mi North 4.6 mph - N/A   Overcast
12:36 AM 28.4 °F 22.2 °F 26.6 °F 93% 29.54 in 10.0 mi North 5.8 mph - N/A   Overcast
12:56 AM 28.4 °F 24.6 °F 26.6 °F 93% 29.54 in 10.0 mi North 3.5 mph - N/A   Overcast
1:16 AM 28.4 °F 22.2 °F 26.6 °F 93% 29.53 in 3.0 mi North 5.8 mph - N/A   Overcast
1:36 AM 28.4 °F 23.3 °F 26.6 °F 93% 29.53 in 10.0 mi North 4.6 mph - N/A   Overcast
1:56 AM 28.4 °F 24.6 °F 26.6 °F 93% 29.52 in 9.0 mi North 3.5 mph - N/A   Overcast
2:16 AM 28.4 °F 24.6 °F 26.6 °F 93% 29.52 in 10.0 mi North 3.5 mph - N/A   Overcast
2:36 AM 26.6 °F 22.6 °F 26.6 °F 100% 29.51 in 9.0 mi NNW 3.5 mph - N/A   Mostly Cloudy
2:56 AM 26.6 °F 20.0 °F 26.6 °F 100% 29.51 in 2.0 mi North 5.8 mph - N/A   Overcast
3:16 AM 26.6 °F 21.2 °F 24.8 °F 93% 29.50 in 5.0 mi NNW 4.6 mph - N/A   Overcast
3:36 AM 26.6 °F 22.6 °F 24.8 °F 93% 29.50 in 3.0 mi NNW 3.5 mph - N/A   Overcast
3:56 AM 26.6 °F - 24.8 °F 93% 29.49 in 10.0 mi Calm Calm - N/A   Overcast
4:16 AM 26.6 °F 19.1 °F 24.8 °F 93% 29.49 in 10.0 mi North 6.9 mph - N/A   Overcast
4:36 AM 26.6 °F 18.2 °F 24.8 °F 93% 29.49 in 10.0 mi North 8.1 mph - N/A   Overcast
4:56 AM 26.6 °F 21.2 °F 23.0 °F 86% 29.48 in 10.0 mi North 4.6 mph - N/A   Overcast
5:16 AM 26.6 °F 22.6 °F 23.0 °F 86% 29.48 in 7.0 mi NNW 3.5 mph - N/A   Overcast
5:36 AM 26.6 °F 22.6 °F 23.0 °F 86% 29.48 in 10.0 mi North 3.5 mph - N/A   Mostly Cloudy
5:56 AM 26.6 °F 22.6 °F 23.0 °F 86% 29.48 in 10.0 mi North 3.5 mph - N/A   Overcast
6:16 AM 26.6 °F 21.2 °F 23.0 °F 86% 29.47 in 10.0 mi North 4.6 mph - N/A   Overcast
6:36 AM 26.6 °F - 23.0 °F 86% 29.47 in 10.0 mi Calm Calm - N/A   Overcast
6:56 AM 26.6 °F 22.6 °F 21.2 °F 80% 29.47 in 10.0 mi NW 3.5 mph - N/A   Overcast
7:16 AM 26.6 °F 22.6 °F 21.2 °F 80% 29.46 in 10.0 mi North 3.5 mph - N/A   Overcast
7:36 AM 26.6 °F 21.2 °F 21.2 °F 80% 29.46 in 10.0 mi North 4.6 mph - N/A   Overcast
7:56 AM 26.6 °F 20.0 °F 21.2 °F 80% 29.45 in 10.0 mi North 5.8 mph - N/A   Overcast
8:16 AM 26.6 °F 22.6 °F 21.2 °F 80% 29.45 in 10.0 mi North 3.5 mph - N/A   Overcast
8:36 AM 26.6 °F 21.2 °F 21.2 °F 80% 29.45 in 10.0 mi North 4.6 mph - N/A   Overcast
8:56 AM 26.6 °F 22.6 °F 23.0 °F 86% 29.44 in 10.0 mi North 3.5 mph - N/A   Overcast
9:16 AM 26.6 °F 21.2 °F 23.0 °F 86% 29.44 in 10.0 mi NNE 4.6 mph - N/A   Overcast
9:36 AM 26.6 °F 22.6 °F 23.0 °F 86% 29.43 in 10.0 mi North 3.5 mph - N/A   Overcast
9:56 AM 28.4 °F 22.2 °F 23.0 °F 80% 29.42 in 10.0 mi North 5.8 mph - N/A   Overcast
10:16 AM 28.4 °F 21.2 °F 21.2 °F 74% 29.41 in 10.0 mi North 6.9 mph - N/A   Overcast
10:36 AM 28.4 °F 22.2 °F 23.0 °F 80% 29.41 in 10.0 mi North 5.8 mph - N/A   Overcast
10:56 AM 28.4 °F 23.3 °F 21.2 °F 74% 29.40 in 10.0 mi NNE 4.6 mph - N/A   Overcast
11:16 AM 28.4 °F 21.2 °F 23.0 °F 80% 29.39 in 10.0 mi NNE 6.9 mph - N/A   Overcast
11:36 AM 30.2 °F 24.3 °F 21.2 °F 69% 29.39 in 10.0 mi NNE 5.8 mph - N/A   Overcast
11:56 AM 30.2 °F 25.4 °F 21.2 °F 69% 29.38 in 10.0 mi North 4.6 mph - N/A   Overcast
12:16 PM 30.2 °F 26.7 °F 21.2 °F 69% 29.38 in 10.0 mi North 3.5 mph - N/A   Overcast
12:36 PM 32.0 °F 26.4 °F 19.4 °F 60% 29.37 in 10.0 mi North 5.8 mph - N/A   Overcast
12:56 PM 30.2 °F 24.3 °F 19.4 °F 64% 29.37 in 10.0 mi NNE 5.8 mph - N/A   Overcast
1:16 PM 32.0 °F 26.4 °F 19.4 °F 60% 29.36 in 10.0 mi NNE 5.8 mph - N/A   Overcast
1:36 PM 32.0 °F 25.6 °F 19.4 °F 60% 29.35 in 10.0 mi NNE 6.9 mph - N/A   Overcast
1:56 PM 30.2 °F 23.4 °F 21.2 °F 69% 29.35 in 10.0 mi North 6.9 mph - N/A   Overcast
2:16 PM 30.2 °F 23.4 °F 19.4 °F 64% 29.34 in 10.0 mi NE 6.9 mph - N/A   Overcast
2:36 PM 30.2 °F 24.3 °F 19.4 °F 64% 29.33 in 10.0 mi North 5.8 mph - N/A   Overcast
2:56 PM 32.0 °F 24.8 °F 19.4 °F 60% 29.33 in 10.0 mi NNE 8.1 mph - N/A   Overcast
3:16 PM 32.0 °F 25.6 °F 19.4 °F 60% 29.31 in 10.0 mi NNE 6.9 mph - N/A   Overcast
3:36 PM 32.0 °F 27.5 °F 19.4 °F 60% 29.30 in 10.0 mi NNE 4.6 mph - N/A   Overcast
3:56 PM 32.0 °F 28.7 °F 19.4 °F 60% 29.29 in 10.0 mi NE 3.5 mph - N/A   Overcast
4:16 PM 32.0 °F 26.4 °F 19.4 °F 60% 29.28 in 10.0 mi North 5.8 mph - N/A   Overcast
4:36 PM 32.0 °F - 17.6 °F 55% 29.27 in 10.0 mi Calm Calm - N/A   Overcast
4:56 PM 32.0 °F 27.5 °F 17.6 °F 55% 29.25 in 10.0 mi North 4.6 mph - N/A   Overcast
5:16 PM 32.0 °F - 17.6 °F 55% 29.25 in 10.0 mi Calm Calm - N/A   Mostly Cloudy
5:36 PM 30.2 °F - 17.6 °F 60% 29.24 in 10.0 mi Calm Calm - N/A   Scattered Clouds
5:56 PM 32.0 °F - 17.6 °F 55% 29.23 in 10.0 mi Calm Calm - N/A   Clear
6:16 PM 33.8 °F - 17.6 °F 52% 29.23 in 10.0 mi Calm Calm - N/A   Clear
6:36 PM 30.2 °F 25.4 °F 19.4 °F 64% 29.22 in 10.0 mi NNE 4.6 mph - N/A   Clear
6:56 PM 28.4 °F 24.6 °F 19.4 °F 69% 29.22 in 10.0 mi North 3.5 mph - N/A   Clear
7:16 PM 28.4 °F - 19.4 °F 69% 29.21 in 10.0 mi Calm Calm - N/A   Clear
7:36 PM 28.4 °F 23.3 °F 19.4 °F 69% 29.20 in 10.0 mi North 4.6 mph - N/A   Clear
7:56 PM 26.6 °F 22.6 °F 19.4 °F 74% 29.19 in 10.0 mi NNW 3.5 mph - N/A   Clear
8:16 PM 26.6 °F - 19.4 °F 74% 29.18 in 10.0 mi Calm Calm - N/A   Clear
8:36 PM 24.8 °F - 19.4 °F 80% 29.17 in 10.0 mi Calm Calm - N/A   Clear
8:56 PM 24.8 °F - 17.6 °F 74% 29.17 in 10.0 mi Calm Calm - N/A   Clear
9:16 PM 23.0 °F 17.0 °F 17.6 °F 80% 29.16 in 10.0 mi WSW 4.6 mph - N/A   Clear
9:36 PM 21.2 °F - 17.6 °F 86% 29.15 in 10.0 mi Calm Calm - N/A   Clear
9:56 PM 21.2 °F 16.4 °F 15.8 °F 80% 29.14 in 10.0 mi WSW 3.5 mph - N/A   Clear
10:16 PM 21.2 °F 16.4 °F 15.8 °F 80% 29.14 in 10.0 mi WSW 3.5 mph - N/A   Clear
10:36 PM 19.4 °F 12.8 °F 15.8 °F 86% 29.14 in 10.0 mi WSW 4.6 mph - N/A   Clear
10:56 PM 19.4 °F - 15.8 °F 86% 29.13 in 10.0 mi Calm Calm - N/A   Clear
11:16 PM 17.6 °F - 15.8 °F 93% 29.13 in 10.0 mi Calm Calm - N/A   Clear
11:36 PM 17.6 °F - 15.8 °F 93% 29.13 in 10.0 mi Calm Calm - N/A   Clear
11:56 PM 17.6 °F - 14.0 °F 86% 29.12 in 10.0 mi Calm Calm - N/A   Clear